Location: Oshawa
(43.9000°N, 78.8670°W)
Time: 19:29:19
(UTC-04:00)

ITAMSAT 1 - Visible Passes

Search period start: 20 April 2014 00:00
Search period end: 30 April 2014 00:00
Orbit: 784 x 799 km, 98.7° (Epoch: 19 April)

Date Brightness Start Highest point End Pass type
(mag) Time Alt. Az. Time Alt. Az. Time Alt. Az.
20 Apr 9.7 02:20:43 10° NE 02:24:11 18° E 02:24:13 18° E visible
20 Apr 7.7 03:59:00 10° N 04:04:05 60° WNW 04:04:59 52° WSW visible
21 Apr 7.6 03:29:53 10° NNE 03:35:05 77° ESE 03:35:41 67° SSE visible
21 Apr 9.4 05:10:55 10° NNW 05:13:57 16° WNW 05:16:27 12° W visible
22 Apr 8.4 03:01:03 10° NNE 03:05:57 42° E 03:06:22 41° ESE visible
22 Apr 8.8 04:40:58 10° N 04:45:15 27° WNW 04:47:08 22° W visible
23 Apr 9.4 02:32:37 10° NE 02:36:42 23° E 02:37:04 23° E visible
23 Apr 8.0 04:11:28 10° N 04:16:25 47° WNW 04:17:50 37° WSW visible
24 Apr 10.0 02:05:11 10° ENE 02:07:18 12° E 02:07:45 12° E visible
24 Apr 7.5 03:42:15 10° NNE 03:47:27 84° WNW 03:48:31 58° SSW visible
24 Apr 9.6 05:24:01 10° NNW 05:26:09 13° WNW 05:28:17 10° W visible
25 Apr 8.1 03:13:17 10° NNE 03:18:22 54° E 03:19:12 48° SE visible
25 Apr 9.1 04:53:38 10° NNW 04:57:29 22° WNW 04:59:58 16° W visible
26 Apr 9.0 02:44:39 10° NE 02:49:10 30° E 02:49:53 29° ESE visible
26 Apr 8.4 04:23:59 10° N 04:28:42 37° WNW 04:30:39 27° WSW visible
27 Apr 9.8 02:16:37 10° NE 02:19:50 16° E 02:20:34 16° E visible
27 Apr 7.7 03:54:39 10° N 03:59:48 66° WNW 04:01:20 44° SW visible
28 Apr 7.8 03:25:35 10° NNE 03:30:46 70° ESE 03:32:01 50° SSE visible
28 Apr 9.4 05:06:24 10° NNW 05:09:42 17° WNW 05:12:46 11° W visible
29 Apr 8.6 02:56:47 10° NNE 03:01:36 38° E 03:02:41 34° SE visible
29 Apr 8.7 04:36:33 10° N 04:40:58 29° WNW 04:43:27 20° WSW visible
